Location: *
(44.3925°N, 5.4708°E)
Time: 15:08:46
(UTC+00:00)

ATLAS 2AS CENTAUR R/B - Pass Details

Date: 18 September 2019
Orbit: 919 x 1292 km, 63.6° (Epoch: 18 October)

Event Time Altitude Azimuth Distance (km) Brightness Sun altitude
Rises 18:41:30 0° 322° (NW) 4,213 6.7 -11.0°
Reaches altitude 10° 18:44:23 10° 323° (NW) 3,206 6.0 -11.5°
Maximum altitude 18:52:08 85° 53° (NE) 1,173 2.9 -12.9°
Enters shadow 18:58:55 11° 142° (SE) 2,836 4.4 -14.0°
